Вернуться в каталог

THOR ABLESTAR DEB

АктивенLEO
NORAD 20174·DEBRIS·🇺🇸 United States

Запущен Jun 29, 1961 с Cape Canaveral Space Force Station

Loading…

Ближайшие Пролёты (ближайшие 24 часа)

TLE

СвежийSource: Space-Track

Эпоха: Sep 13, 2026, 13:06 UTC

1 20174U 61015MK  26256.54624499  .00000191  00000-0  29365-3 0  9990
2 20174  67.0587  90.0531 0479257  70.6677 294.5540 13.28899562693532

Отслеживайте THOR ABLESTAR DEB в реальном времени с AllMySat

Download on the App Store